Calgary Springbank,

9:04 PM MST on December 17, 2017 (GMT -0700)
Calgary Springbank

Weather History for CYBW - November, 2013

Change the Weather History Date:

Saturday, November 16, 2013

  Actual Average Record
Temperature  
Mean Temperature 16 °F -  
Max Temperature 25 °F 30 °F 53 °F (1999)
Min Temperature 5 °F 11 °F -9 °F (1996)
Degree Days  
Heating Degree Days 50    
Moisture  
Dew Point 10 °F    
Average Humidity 83    
Maximum Humidity 100    
Minimum Humidity 66    
Precipitation  
Precipitation 0.24 in - - ()
Sea Level Pressure  
Sea Level Pressure 29.56 in    
Wind  
Wind Speed 12 mph ()    
Max Wind Speed 33 mph    
Max Gust Speed 43 mph    
Visibility 2.7 miles    
Events Snow    
Averages and records for this station are not official NWS values.
T = Trace of Precipitation, MM = Missing Value Source: Averaged Metar Reports

Daily Weather History Graph

Daily Weather History Graph

Search for Another Location

Airport or City:

Trip Planner

Search our weather history database for the weather conditions in past years. The results will help you decide how hot, cold, wet, or windy it might be!

Date:

Astronomy

Nov. 16, 2013 Rise Set
Actual Time 7:56 AM MST 4:47 PM MST
Civil Twilight 7:19 AM MST 5:24 PM MST
Nautical Twilight 6:39 AM MST 6:04 PM MST
Astronomical Twilight 6:00 AM MST 6:43 PM MST
Moon 4:29 PM MST (11/16) 6:51 AM MST (11/16)
Length of Visible Light 10h 04m
Length of Day
8h 51m
Waxing Gibbous, 99% of the Moon is Illuminated
Nov 16
Waxing Gibbous
Nov 17
Full
Nov 25
Last Quarter
Dec 2
New
Dec 9
First Quarter

Hourly Weather History & Observations

Time (MST) Temp. Windchill Dew Point Humidity Pressure Visibility Wind Dir Wind Speed Gust Speed Precip Events Conditions
5:00 AM 25 °F - 24 °F 96% 29.32 in 2 mi South 1.2 mph - - Snow Light Snow
5:00 AM 24.8 °F - 24.8 °F 100% 29.31 in 2.0 mi Calm Calm - N/A Snow Light Snow
5:51 AM 24.8 °F - 24.8 °F 100% 29.32 in 1.0 mi North 2.3 mph - N/A Snow Light Snow
6:00 AM 24.8 °F 20.5 °F 24.8 °F 100% 29.32 in 1.0 mi North 3.5 mph - N/A Snow Light Snow
6:46 AM 23.0 °F 5.1 °F 21.2 °F 93% 29.37 in 0.1 mi North 31.1 mph 41.4 mph N/A Snow Light Snow
7:00 AM 19.4 °F -0.3 °F 17.6 °F 93% 29.40 in 0.0 mi North 33.4 mph 42.6 mph N/A Snow Heavy Snow
7:19 AM 19.4 °F 1.4 °F 15.8 °F 86% 29.42 in 0.6 mi NNW 26.5 mph 34.5 mph N/A Snow Light Snow
7:35 AM 17.6 °F -2.5 °F 14.0 °F 86% 29.43 in 0.1 mi NNW 32.2 mph 40.3 mph N/A Snow Heavy Snow
8:00 AM 17.6 °F -0.3 °F 12.2 °F 79% 29.45 in 0.2 mi NNW 24.2 mph 31.1 mph N/A Snow Heavy Snow
8:38 AM 15.8 °F -4.1 °F 10.4 °F 79% 29.48 in 2.0 mi NNW 28.8 mph 39.1 mph N/A Snow Light Snow
9:00 AM 15.8 °F -0.6 °F 10.4 °F 79% 29.50 in 2.0 mi North 18.4 mph 29.9 mph N/A Snow Light Snow
10:00 AM 14.0 °F -3.4 °F 8.6 °F 79% 29.55 in 0.6 mi NNW 19.6 mph 33.4 mph N/A Snow Light Snow
11:00 AM 13 °F - 7 °F 69% 29.60 in 0 mi North 24.2 mph - - Snow Snow
11:00 AM 14.0 °F -5.1 °F 6.8 °F 73% 29.59 in 0.5 mi North 24.2 mph 32.2 mph N/A Snow Snow
12:00 PM 14.0 °F -2.5 °F 6.8 °F 73% 29.62 in 0.5 mi North 17.3 mph 25.3 mph N/A Snow Snow
12:56 PM 12.2 °F -3.7 °F 6.8 °F 79% 29.62 in 2.0 mi North 15.0 mph - N/A Snow Light Snow
1:00 PM 12.2 °F -4.3 °F 6.8 °F 79% 29.62 in 2.5 mi North 16.1 mph 21.9 mph N/A Snow Light Snow
1:08 PM 12.2 °F -4.8 °F 5.0 °F 73% 29.62 in 3.0 mi North 17.3 mph - N/A Snow Light Snow
1:11 PM 12.2 °F -3.7 °F 6.8 °F 79% 29.62 in 4.0 mi North 15.0 mph 23.0 mph N/A Snow Light Snow
2:00 PM 12.2 °F -3.7 °F 5.0 °F 73% 29.63 in 6.0 mi North 15.0 mph - N/A Snow Light Snow
3:00 PM 10.4 °F -3.3 °F 5.0 °F 79% 29.65 in 6.0 mi North 10.4 mph - N/A Snow Light Snow
4:00 PM 10.4 °F -2.4 °F 5.0 °F 79% 29.67 in 6.0 mi North 9.2 mph - N/A Snow Light Snow
5:00 PM 10 °F - 4 °F 66% 29.69 in 4 mi North 6.9 mph - - Snow Light Snow
5:00 PM 8.6 °F -2.6 °F 3.2 °F 79% 29.69 in 4.0 mi North 6.9 mph - N/A Snow Light Snow
6:00 PM 8.6 °F -2.6 °F 3.2 °F 79% 29.71 in 6.0 mi North 6.9 mph - N/A Snow Light Snow
7:00 PM 6.8 °F -4.8 °F 3.2 °F 85% 29.74 in 5.0 mi North 6.9 mph - N/A Snow Light Snow
8:00 PM 6.8 °F -2.0 °F 3.2 °F 85% 29.76 in 6.0 mi NNW 4.6 mph - N/A Snow Light Snow
9:00 PM 6.8 °F -2.0 °F 3.2 °F 85% 29.78 in 1.0 mi North 4.6 mph - N/A Snow Light Snow
9:24 PM 6.8 °F -2.0 °F 3.2 °F 85% 29.78 in 6.0 mi North 4.6 mph - N/A Snow Light Snow
10:00 PM 5.0 °F -2.1 °F 1.4 °F 85% 29.56 in 6.0 mi NW 3.5 mph - N/A Snow Light Snow